Orbital Elements at Epoch 2459200.5 (2020-Dec-17.0) TDB
Reference: JPL 22 (heliocentric ecliptic J2000)
Element | Value | Uncertainty (1-sigma) | Units |
e | .004280655647095386 | 3.8899e-08 | |
a | 2.880755774290884 | 1.8052e-08 | au |
q | 2.868424250817763 | 1.0904e-07 | au |
i | 1.688255929056585 | 6.2024e-06 | deg |
node | 357.7888268048571 | 0.00012658 | deg |
peri | 132.9651028460944 | 0.00076485 | deg |
M | 120.2179915280211 | 0.00075311 | deg |
tp | 2458604.117274142537 (2019-Apr-30.61727414) | 0.003736 | TDB |
period | 1785.903911550906 4.89 | 1.6787e-05 4.596e-08 | d yr |
n | .2015785942746329 | 1.8947e-09 | deg/d |
Q | 2.893087297764005 | 1.8129e-08 | au |
|
| | Orbit Determination Parameters
Additional Information
|